[[{"header":{"parameterUnit":"m.s-1","parameterCategory":2,"la1":30.2991,"la2":30.254,"lo1":-89.0895,"lo2":-89.0444,"dy":0.0017,"dx":0.0017,"nx":28,"ny":28,"refTime":"2023-07-27T21:00:00:Z","depth":"0","parameterNumber":2,"parameterNumberName":"U-component_of_CURRENTS"},"data":[0,0,0,0,0,0,0,0,0,0,0,0,0,0,0,0,0,0,0,0,0,0,0,0,0,0,0,0,0,0,0,0,0,0,0,0,0,0,0,0,0,0,0,0,0,0,0,0,0,0,0,0,0,0,0,0,0,0,0.4478,0.4477,0,0.4382,0.438,0.4379,0.4384,0.4385,0.4387,0.4388,0.4355,0.4353,0.435,0,0,0,0,0,0,0,0,0,0,0,0,0,0.4743,0.4737,0.4478,0.4477,0.4475,0.4382,0.438,0.4379,0.4384,0.4385,0.4387,0.4389,0.4356,0.4353,0.435,0,0,0,0,0,0,0,0,0,0,0,0,0,0.4634,0.4736,0.4478,0.4467,0.4466,0.4382,0.438,0.4379,0.4383,0.4385,0.4388,0.439,0.4357,0.4353,0.435,0.4284,0,0,0.4339,0.4338,0,0,0,0,0,0,0,0,0.464,0.4624,0.447,0.4468,0.4466,0.4398,0.4462,0.4351,0.4383,0.4413,0.4388,0.4391,0.4374,0.4369,0.4344,0.4283,0.4281,0.4339,0.4337,0.4336,0.4335,0,0,0,0,0,0,0,0.4648,0.4629,0.4438,0.4469,0.4466,0.4495,0.4481,0.4441,0.4383,0.4411,0.4411,0.4402,0.4374,0.4347,0.4343,0.4281,0.4339,0.4336,0.4334,0.4333,0.4149,0.4146,0,0,0,0,0,0,0.4654,0.4634,0.4441,0.4436,0.4562,0.4488,0.4472,0.4417,0.4382,0.4378,0.44,0.4402,0.4352,0.4347,0.4342,0.4251,0.4336,0.4332,0.433,0.4152,0.4148,0.4145,0,0,0,0,0,0,0.4659,0.4636,0.4445,0.4538,0.4516,0.448,0.4418,0.4414,0.4384,0.4373,0.4371,0.4376,0.4353,0.4347,0.4293,0.4251,0.4331,0.4328,0.4155,0.4151,0.4147,0.4075,0,0,0,0,0,0,0.4666,0.4637,0.4594,0.4536,0.4511,0.4375,0.4416,0.441,0.4376,0.4378,0.4351,0.4351,0.4355,0.4298,0.4289,0.4247,0.4325,0.4159,0.4153,0.4148,0.4081,0.4069,0.4059,0,0,0,0,0,0.4675,0.4594,0.4591,0.4568,0.4452,0.4372,0.436,0.4346,0.4372,0.4333,0.4326,0.4352,0.4259,0.4292,0.4283,0.4239,0.4161,0.4155,0.4148,0.4086,0.4072,0.4059,0,0,0,0,0,0,0.4673,0.4585,0.4581,0.4473,0.4425,0.4374,0.4332,0.4333,0.4293,0.43,0.431,0.4306,0.4246,0.4241,0.4279,0.4168,0.4215,0.4206,0.4171,0.4157,0.4145,0.4152,0.4322,0,0,0,0,0,0.4655,0.4575,0.4513,0.4427,0.4401,0.4369,0.4337,0.4325,0.4288,0.4273,0.4256,0.4236,0.4207,0.4185,0.4154,0.4084,0.4104,0.405,0.4038,0.4029,0.4026,0.4027,0.4017,0.4124,0.4124,0.4124,0,0,0.463,0.4573,0.4527,0.4424,0.4387,0.4317,0.4353,0.4287,0.4236,0.4274,0.4194,0.4193,0.418,0.411,0.4082,0.4104,0.4002,0.4021,0.4014,0.4015,0.4019,0.4009,0.4,0.412,0.4121,0.4121,0,0,0.454,0.449,0.4399,0.4357,0.4292,0.4267,0.4247,0.4186,0.4168,0.4093,0.4119,0.4095,0.4025,0.4017,0.4007,0.3909,0.3947,0.3891,0.3834,0.3835,0.3827,0.3821,0.3816,0.3809,0.3881,0.3881,0.3881,0,0.4516,0.4385,0.4364,0.4281,0.4235,0.4242,0.4152,0.4125,0.4057,0.4033,0.4057,0.3982,0.3984,0.3922,0.3897,0.3886,0.3892,0.3893,0.3824,0.3818,0.3813,0.381,0.3804,0.3877,0.3878,0.3878,0.3878,0,0.4362,0.4274,0.4218,0.4115,0.4072,0.3988,0.3965,0.3923,0.3917,0.3898,0.3839,0.3844,0.3813,0.3801,0.3822,0.3771,0.3788,0.3818,0.3869,0.3798,0.3798,0.3793,0.3871,0.3873,0.3874,0.3875,0,0,0.4219,0.4128,0.4099,0.4052,0.3976,0.392,0.3852,0.3777,0.3742,0.371,0.3658,0.3631,0.3671,0.3662,0.369,0.3689,0.3664,0.3733,0.3735,0.3746,0.3656,0.358,0.3568,0.3687,0.3686,0.3685,0.3667,0,0.4085,0.3939,0.3914,0.3776,0.3699,0.3707,0.3646,0.3608,0.3593,0.3554,0.3582,0.3553,0.3608,0.3612,0.3616,0.3657,0.365,0.3666,0.3707,0.3708,0.3664,0.3559,0.3398,0.336,0.3663,0.3662,0.3662,0,0.3893,0.3835,0.3696,0.3626,0.3591,0.3534,0.3465,0.3414,0.3399,0.3397,0.3397,0.3435,0.3439,0.3508,0.3536,0.3543,0.359,0.3624,0.3625,0.3577,0.3622,0.348,0.3341,0.3156,0.3655,0.3656,0.3656,0,0.3777,0.3655,0.3554,0.3523,0.3459,0.3418,0.3393,0.3366,0.3323,0.3323,0.3304,0.3326,0.3337,0.3397,0.3478,0.3509,0.3508,0.3566,0.3532,0.3528,0.341,0.3396,0.3112,0.3576,0.3576,0.3576,0.3576,0,0.3603,0.3504,0.351,0.345,0.335,0.3352,0.3256,0.3245,0.3229,0.3174,0.3239,0.3207,0.3311,0.3332,0.3426,0.3441,0.3468,0.3492,0.3503,0.3375,0.3359,0.3213,0.3178,0.3575,0.3575,0.3575,0.3575,0,0.3437,0.3433,0.3326,0.3298,0.3285,0.3225,0.3181,0.3133,0.3137,0.3075,0.3079,0.3101,0.3128,0.3216,0.3298,0.3346,0.3274,0.3404,0.3239,0.323,0.3021,0.2992,0.2748,0.2704,0.335,0.3348,0.3346,0,0.3317,0.3256,0.323,0.3199,0.3178,0.3118,0.308,0.308,0.3044,0.3004,0.2972,0.2976,0.2967,0.3032,0.3127,0.3221,0.3148,0.3104,0.3132,0.2937,0.2915,0.2865,0.2846,0.2949,0.2944,0.294,0.2937,0,0.3111,0.313,0.3089,0.3049,0.3014,0.2965,0.2932,0.2897,0.2895,0.2853,0.2809,0.2801,0.2836,0.2826,0.2918,0.2975,0.2889,0.3022,0.2852,0.2577,0.2473,0.2461,0.3043,0.2901,0.2904,0.2907,0.2909,0.291,0.2971,0.2933,0.2928,0.2876,0.2851,0.2831,0.2769,0.276,0.2703,0.2614,0.2664,0.2588,0.2549,0.2658,0.2682,0.2534,0.267,0.2449,0.2434,0.2405,0.2312,0.2803,0.2658,0.266,0.2662,0.2663,0.2665,0,0.2779,0.2788,0.2749,0.271,0.2665,0.2699,0.2661,0.2599,0.2524,0.247,0.2415,0.2295,0.2194,0.2161,0.2058,0.1948,0.196,0.1839,0.1705,0.1732,0.2163,0.209,0.1772,0.1772,0.1773,0.1773,0.1773,0.1773,0.268,0.2625,0.264,0.2544,0.2523,0.2441,0.2421,0.2342,0.2292,0.2108,0.199,0.1957,0.1814,0.1526,0.1305,0.1313,0.1237,0.1158,0.123,0.1468,0.1523,0.1576,0.149,0.1053,0.1052,0.0733,0.073,0.0727]},{"header":{"parameterUnit":"m.s-1","parameterCategory":2,"la1":30.2991,"la2":30.254,"lo1":-89.0895,"lo2":-89.0444,"dy":0.0017,"dx":0.0017,"nx":28,"ny":28,"refTime":"2023-07-27T21:00:00:Z","depth":"0","parameterNumber":3,"parameterNumberName":"V-component_of_CURRENTS"},"data":[0,0,0,0,0,0,0,0,0,0,0,0,0,0,0,0,0,0,0,0,0,0,0,0,0,0,0,0,0,0,0,0,0,0,0,0,0,0,0,0,0,0,0,0,0,0,0,0,0,0,0,0,0,0,0,0,0,0,0.0336,0.0339,0,0.0592,0.0594,0.0597,0.0701,0.07,0.07,0.07,0.0824,0.0828,0.0831,0,0,0,0,0,0,0,0,0,0,0,0,0,0.0031,0.0036,0.0335,0.0339,0.0342,0.0591,0.0594,0.0598,0.0701,0.07,0.07,0.0699,0.0823,0.0827,0.0832,0,0,0,0,0,0,0,0,0,0,0,0,0,0.021,0.0037,0.0335,0.0426,0.0436,0.059,0.0595,0.0599,0.0701,0.07,0.07,0.0699,0.0822,0.0827,0.0832,0.0877,0,0,0.0849,0.0851,0,0,0,0,0,0,0,0,0.02,0.0221,0.0409,0.042,0.0432,0.0616,0.0534,0.0686,0.0701,0.0598,0.07,0.0699,0.0744,0.0756,0.0804,0.0883,0.0888,0.085,0.0853,0.0855,0.0857,0,0,0,0,0,0,0,0.0187,0.0211,0.0434,0.0413,0.0427,0.0487,0.051,0.0564,0.0666,0.0607,0.0615,0.0648,0.0749,0.0798,0.0807,0.089,0.0849,0.0854,0.0858,0.086,0.0972,0.0971,0,0,0,0,0,0,0.0157,0.0199,0.0426,0.0442,0.0315,0.0492,0.0519,0.0555,0.0669,0.0688,0.0649,0.0652,0.0789,0.0801,0.0812,0.0856,0.0855,0.086,0.0863,0.0972,0.0971,0.0971,0,0,0,0,0,0,0.015,0.0175,0.0416,0.0328,0.0363,0.0498,0.0538,0.0561,0.0612,0.0703,0.0718,0.0677,0.0789,0.0804,0.0876,0.0862,0.0863,0.0868,0.0972,0.0972,0.0971,0.0953,0,0,0,0,0,0,0.014,0.0171,0.0182,0.0326,0.0367,0.0512,0.054,0.0566,0.0635,0.0642,0.0732,0.0744,0.079,0.0868,0.0882,0.0869,0.0872,0.0973,0.0972,0.0971,0.0954,0.0952,0.0951,0,0,0,0,0,0.0128,0.0152,0.0181,0.0209,0.038,0.0513,0.054,0.0632,0.0636,0.0671,0.0733,0.0741,0.0871,0.0874,0.089,0.0878,0.0973,0.0972,0.0972,0.0955,0.0953,0.0951,0,0,0,0,0,0,0.0021,0.0169,0.0204,0.0269,0.0381,0.0532,0.0573,0.0627,0.0708,0.0704,0.0769,0.0787,0.0836,0.0861,0.0862,0.0904,0.091,0.0913,0.0892,0.0891,0.0889,0.086,0.0877,0,0,0,0,0,0.0002,0.0058,0.0207,0.0254,0.0309,0.0434,0.0495,0.0562,0.0657,0.0693,0.0757,0.0804,0.0847,0.0873,0.0924,0.0964,0.0948,0.0954,0.0953,0.0951,0.0936,0.0902,0.0895,0.0969,0.0969,0.0969,0,0,-0.0029,0.006,0.009,0.0235,0.0325,0.0419,0.0469,0.0567,0.0628,0.0689,0.0771,0.0812,0.0859,0.0908,0.0927,0.0927,0.0924,0.095,0.0949,0.0934,0.0901,0.0893,0.0887,0.0968,0.0968,0.0968,0,0,-0.0038,0.0019,0.0078,0.0174,0.0316,0.0398,0.042,0.0572,0.0617,0.0712,0.0749,0.0782,0.0876,0.0899,0.0919,0.0931,0.0919,0.0935,0.0903,0.0871,0.0865,0.0858,0.0836,0.0827,0.0928,0.0928,0.0928,0,-0.0084,0.002,0.0113,0.0206,0.0277,0.0381,0.0462,0.0534,0.0682,0.0702,0.0728,0.0821,0.0864,0.0888,0.0896,0.0925,0.0908,0.0913,0.0867,0.0861,0.0855,0.0833,0.0824,0.0927,0.0927,0.0927,0.0927,0,-0.0022,0.0057,0.0099,0.0242,0.032,0.0408,0.0523,0.0579,0.063,0.0693,0.0735,0.08,0.0839,0.0851,0.0889,0.0861,0.0864,0.0874,0.0871,0.0846,0.0825,0.0816,0.0926,0.0926,0.0926,0.0926,0,0,-0.0095,0.0101,0.0119,0.0184,0.0348,0.0419,0.0492,0.0588,0.0607,0.0699,0.0714,0.078,0.0785,0.0806,0.0834,0.0811,0.0767,0.0822,0.0821,0.0794,0.0696,0.0715,0.0708,0.0767,0.0765,0.0763,0.0701,0,-0.0067,0.0079,0.0172,0.0289,0.0377,0.0466,0.052,0.0598,0.0649,0.0686,0.0707,0.0742,0.0775,0.0783,0.0764,0.0779,0.0741,0.0783,0.0727,0.0725,0.0741,0.0697,0.0748,0.0697,0.0692,0.0691,0.069,0,-0.0014,0.0077,0.0192,0.0318,0.0357,0.0416,0.0487,0.0554,0.0606,0.0636,0.0651,0.0684,0.0684,0.0703,0.0678,0.0704,0.0685,0.0684,0.0682,0.0695,0.0727,0.072,0.0681,0.0682,0.0676,0.0677,0.0678,0,-0.0078,0.0091,0.0165,0.0222,0.0374,0.0396,0.0453,0.0521,0.0552,0.0588,0.0598,0.0613,0.0618,0.06,0.063,0.064,0.0592,0.0604,0.0594,0.0596,0.0624,0.0631,0.0574,0.0539,0.0539,0.0539,0.054,0,-0.0059,0.0008,0.0132,0.0183,0.0232,0.0341,0.037,0.0426,0.0473,0.0489,0.055,0.0559,0.0587,0.0591,0.0596,0.0581,0.0561,0.0569,0.0571,0.0622,0.0629,0.0621,0.0618,0.0537,0.0538,0.0538,0.0538,0,-0.0103,-0.0012,0.0075,0.0191,0.0217,0.0244,0.0327,0.0343,0.0398,0.0415,0.0424,0.0497,0.052,0.0555,0.054,0.0538,0.0539,0.0515,0.0584,0.0595,0.0582,0.0578,0.0506,0.0554,0.0474,0.0474,0.0474,0,-0.0095,-0.0055,0.0045,0.0068,0.0121,0.0172,0.0202,0.0286,0.0305,0.0381,0.0377,0.0426,0.048,0.0495,0.0523,0.0529,0.0536,0.0535,0.0554,0.0568,0.0564,0.0564,0.0611,0.0587,0.0588,0.0589,0.0589,0,-0.0099,-0.0083,-0.0025,0.0008,0.0039,0.0087,0.0134,0.0145,0.0234,0.0266,0.032,0.0376,0.0446,0.0524,0.0554,0.0552,0.0569,0.0548,0.0538,0.0616,0.0634,0.0688,0.0648,0.0596,0.0595,0.0595,0.0594,0.0594,-0.0129,-0.0117,-0.0075,-0.0046,-0.0015,0.0009,0.0039,0.0094,0.0139,0.0232,0.0275,0.0405,0.052,0.0604,0.0591,0.0611,0.0597,0.0607,0.059,0.058,0.0651,0.0627,0.0596,0.0595,0.0594,0.0594,0.0594,0,-0.0163,-0.0152,-0.0128,-0.0091,-0.008,-0.0047,0.0004,0.0053,0.0114,0.0222,0.0309,0.0504,0.0602,0.0671,0.0698,0.0668,0.0688,0.0649,0.0663,0.0705,0.0659,0.0692,0.0709,0.0709,0.0709,0.0709,0.0709,0.0709,-0.0177,-0.0182,-0.017,-0.0159,-0.0137,-0.0098,-0.0068,0.0023,0.0124,0.0285,0.0435,0.0555,0.0655,0.0664,0.0676,0.0679,0.0708,0.0684,0.0689,0.0655,0.065,0.0646,0.0675,0.0689,0.0689,0.0788,0.0788,0.0789]}],[{"header":{"parameterUnit":"m.s-1","parameterCategory":2,"la1":30.2991,"la2":30.254,"lo1":-89.0895,"lo2":-89.0444,"dy":0.0017,"dx":0.0017,"nx":28,"ny":28,"refTime":"2023-07-27T21:00:00:Z","depth":"2","parameterNumber":2,"parameterNumberName":"U-component_of_CURRENTS"},"data":[0,0,0,0,0,0,0,0,0,0,0,0,0,0,0,0,0,0,0,0,0,0,0,0,0,0,0,0,0,0,0,0,0,0,0,0,0,0,0,0,0,0,0,0,0,0,0,0,0,0,0,0,0,0,0,0,0,0,0.1658,0.1659,0,0.1692,0.1692,0.1693,0.1727,0.1728,0.1728,0.1729,0.1854,0.1856,0.1859,0,0,0,0,0,0,0,0,0,0,0,0,0,0.1603,0.1604,0.1658,0.1659,0.166,0.1692,0.1692,0.1693,0.1727,0.1728,0.1729,0.1729,0.1853,0.1856,0.1859,0,0,0,0,0,0,0,0,0,0,0,0,0,0.1627,0.1604,0.1658,0.1684,0.1687,0.1692,0.1692,0.1693,0.1726,0.1728,0.1729,0.173,0.1852,0.1856,0.186,0.1858,0,0,0.1871,0.1873,0,0,0,0,0,0,0,0,0.1626,0.1629,0.1679,0.1682,0.1686,0.171,0.1719,0.1754,0.1726,0.1707,0.1729,0.1731,0.1816,0.1823,0.1819,0.1864,0.187,0.1872,0.1874,0.1876,0.1877,0,0,0,0,0,0,0,0.1624,0.1627,0.1668,0.168,0.1684,0.1687,0.1692,0.1725,0.1753,0.1709,0.1712,0.1722,0.1818,0.1815,0.1823,0.1871,0.1872,0.1875,0.1877,0.1879,0.2022,0.2023,0,0,0,0,0,0,0.1628,0.1626,0.1667,0.1669,0.1663,0.1687,0.1692,0.1698,0.175,0.176,0.1721,0.1724,0.1808,0.1818,0.1828,0.1914,0.1876,0.1879,0.1881,0.202,0.2022,0.2024,0,0,0,0,0,0,0.1626,0.1631,0.1665,0.1652,0.1657,0.1688,0.1693,0.1698,0.1736,0.176,0.177,0.176,0.181,0.1822,0.1887,0.1916,0.1881,0.1884,0.2019,0.2021,0.2023,0.2032,0,0,0,0,0,0,0.1624,0.163,0.1653,0.1652,0.1658,0.1691,0.1692,0.1698,0.1739,0.1744,0.1796,0.1806,0.1812,0.1881,0.1891,0.1921,0.1887,0.2017,0.202,0.2022,0.203,0.2035,0.2039,0,0,0,0,0,0.1622,0.1647,0.1654,0.166,0.1683,0.1693,0.1696,0.1719,0.1741,0.1758,0.1796,0.1806,0.1906,0.1885,0.1896,0.1928,0.2015,0.2019,0.2022,0.2028,0.2034,0.2038,0,0,0,0,0,0,0.1654,0.1653,0.166,0.1691,0.1701,0.1701,0.1728,0.1742,0.1782,0.1803,0.1824,0.1837,0.1905,0.1919,0.1895,0.1979,0.1963,0.1969,0.1964,0.197,0.1974,0.195,0.1891,0,0,0,0,0,0.1666,0.1675,0.168,0.1708,0.1717,0.1729,0.1746,0.1759,0.1785,0.1806,0.184,0.1882,0.1919,0.1948,0.1981,0.2028,0.2038,0.2057,0.2061,0.2065,0.2054,0.2086,0.2092,0.2035,0.2035,0.2035,0,0,0.1686,0.169,0.1698,0.1715,0.1727,0.1727,0.1743,0.1776,0.1781,0.1815,0.1858,0.1905,0.1937,0.1984,0.2016,0.2005,0.2092,0.2069,0.2071,0.2059,0.209,0.2096,0.21,0.2037,0.2037,0.2037,0,0,0.1712,0.1736,0.1743,0.1747,0.177,0.1765,0.1784,0.1803,0.1823,0.1865,0.1892,0.1952,0.2011,0.2028,0.2045,0.2096,0.2116,0.2127,0.2125,0.2157,0.2161,0.2165,0.2204,0.2211,0.2124,0.2124,0.2124,0,0.1747,0.1741,0.1752,0.1755,0.1757,0.1783,0.1783,0.1798,0.1839,0.1856,0.1887,0.198,0.202,0.2058,0.2081,0.2103,0.2131,0.21,0.216,0.2164,0.2168,0.2206,0.2214,0.2125,0.2125,0.2125,0.2125,0,0.1752,0.1759,0.1769,0.1763,0.1769,0.1782,0.1788,0.1816,0.1852,0.1865,0.1937,0.1992,0.2045,0.2076,0.2097,0.2149,0.2166,0.2163,0.214,0.2174,0.2213,0.2221,0.2126,0.2126,0.2126,0.2126,0,0,0.1799,0.1775,0.1782,0.1761,0.1773,0.1767,0.1786,0.1794,0.1809,0.1874,0.1902,0.1985,0.2038,0.2061,0.2109,0.2141,0.2209,0.2172,0.2173,0.2197,0.2298,0.2143,0.2137,0.2224,0.2225,0.2226,0.2321,0,0.1803,0.1784,0.1777,0.1757,0.1738,0.1753,0.1755,0.1773,0.1811,0.1848,0.1916,0.1974,0.2022,0.2076,0.2116,0.2195,0.2228,0.2184,0.2272,0.2275,0.2122,0.2139,0.1905,0.1954,0.2329,0.233,0.2331,0,0.1802,0.1781,0.1761,0.1717,0.1716,0.1719,0.1721,0.173,0.1781,0.182,0.1892,0.1953,0.2042,0.2069,0.2199,0.2178,0.2239,0.2284,0.2288,0.2138,0.2132,0.198,0.1954,0.2344,0.2342,0.2342,0.2341,0,0.1786,0.1763,0.1737,0.1728,0.1699,0.1707,0.1708,0.174,0.1744,0.1823,0.1853,0.1955,0.2027,0.2116,0.2233,0.2234,0.2352,0.2359,0.2268,0.226,0.2068,0.2038,0.242,0.242,0.2419,0.2419,0.2419,0,0.1763,0.174,0.1734,0.1715,0.169,0.1694,0.1691,0.1711,0.175,0.1757,0.1855,0.1889,0.2045,0.2132,0.2228,0.2268,0.2355,0.2259,0.2262,0.2066,0.2036,0.2374,0.2368,0.2423,0.2422,0.2421,0.2421,0,0.1725,0.1729,0.1686,0.1674,0.1676,0.1663,0.1664,0.1658,0.1715,0.1735,0.1767,0.1866,0.1985,0.211,0.2258,0.2239,0.2307,0.2294,0.2052,0.2021,0.2201,0.2195,0.2201,0.2196,0.2191,0.2188,0.2185,0,0.1686,0.1669,0.1656,0.1638,0.1636,0.1626,0.1617,0.1647,0.1645,0.1709,0.1714,0.1831,0.1897,0.2029,0.2018,0.2101,0.2245,0.1906,0.1829,0.217,0.2174,0.2174,0.2173,0.1616,0.1608,0.1602,0.1597,0,0.16,0.1622,0.1594,0.1562,0.1553,0.1531,0.1534,0.1528,0.1569,0.1596,0.1646,0.1709,0.1767,0.1708,0.1752,0.1773,0.1867,0.1778,0.2212,0.1676,0.1617,0.1621,0.164,0.1544,0.1549,0.1553,0.1556,0.1558,0.1541,0.151,0.149,0.1461,0.1451,0.1442,0.1427,0.1436,0.1439,0.1468,0.1538,0.1518,0.1475,0.1392,0.1409,0.1391,0.1518,0.1456,0.1477,0.1503,0.1387,0.1319,0.1172,0.1175,0.1177,0.118,0.1182,0,0.1413,0.1406,0.1376,0.1344,0.1317,0.1359,0.1358,0.1336,0.1337,0.1325,0.1364,0.1096,0.1048,0.1078,0.0921,0.0909,0.0945,0.0923,0.0948,0.0996,0.104,0.0905,0.056,0.056,0.0559,0.0559,0,0,0.1335,0.1274,0.1272,0.1214,0.1225,0.1212,0.1226,0.1205,0.1161,0.1032,0.0928,0.0987,0.0931,0.0687,0.0672,0.0606,0.0823,0.0589,0.1062,0.1133,0.1178,0.1292,0.1127,0,0,0,0,0]},{"header":{"parameterUnit":"m.s-1","parameterCategory":2,"la1":30.2991,"la2":30.254,"lo1":-89.0895,"lo2":-89.0444,"dy":0.0017,"dx":0.0017,"nx":28,"ny":28,"refTime":"2023-07-27T21:00:00:Z","depth":"2","parameterNumber":3,"parameterNumberName":"V-component_of_CURRENTS"},"data":[0,0,0,0,0,0,0,0,0,0,0,0,0,0,0,0,0,0,0,0,0,0,0,0,0,0,0,0,0,0,0,0,0,0,0,0,0,0,0,0,0,0,0,0,0,0,0,0,0,0,0,0,0,0,0,0,0,0,-0.0408,-0.0408,0,-0.0397,-0.0397,-0.0397,-0.0417,-0.0417,-0.0418,-0.0419,-0.0455,-0.0455,-0.0456,0,0,0,0,0,0,0,0,0,0,0,0,0,-0.0389,-0.039,-0.0408,-0.0408,-0.0408,-0.0397,-0.0397,-0.0397,-0.0416,-0.0417,-0.0418,-0.0419,-0.0455,-0.0455,-0.0456,0,0,0,0,0,0,0,0,0,0,0,0,0,-0.0388,-0.039,-0.0408,-0.0418,-0.0419,-0.0397,-0.0397,-0.0397,-0.0416,-0.0417,-0.0419,-0.042,-0.0455,-0.0455,-0.0456,-0.0433,0,0,-0.0457,-0.0457,0,0,0,0,0,0,0,0,-0.0389,-0.0389,-0.0417,-0.0417,-0.0418,-0.0411,-0.0404,-0.0412,-0.0416,-0.0415,-0.0419,-0.042,-0.0445,-0.0446,-0.0438,-0.0435,-0.0436,-0.0457,-0.0457,-0.0457,-0.0457,0,0,0,0,0,0,0,-0.0389,-0.0389,-0.0402,-0.0417,-0.0418,-0.0404,-0.0405,-0.0405,-0.0423,-0.0416,-0.0417,-0.0419,-0.0446,-0.0438,-0.0439,-0.0437,-0.0457,-0.0457,-0.0457,-0.0457,-0.0435,-0.0434,0,0,0,0,0,0,-0.0395,-0.039,-0.0403,-0.0402,-0.0408,-0.0403,-0.0405,-0.0411,-0.0422,-0.0425,-0.0418,-0.042,-0.0437,-0.0439,-0.0441,-0.0416,-0.0457,-0.0457,-0.0457,-0.0436,-0.0435,-0.0434,0,0,0,0,0,0,-0.0395,-0.0397,-0.0403,-0.0397,-0.0397,-0.0403,-0.0409,-0.041,-0.042,-0.0423,-0.0427,-0.0429,-0.0438,-0.044,-0.044,-0.0418,-0.0457,-0.0458,-0.0437,-0.0436,-0.0435,-0.0366,0,0,0,0,0,0,-0.0394,-0.0397,-0.0411,-0.0397,-0.0397,-0.04,-0.0408,-0.0409,-0.0419,-0.0422,-0.0434,-0.0438,-0.0439,-0.0439,-0.044,-0.0419,-0.0458,-0.0438,-0.0436,-0.0435,-0.0369,-0.0362,-0.0357,0,0,0,0,0,-0.0394,-0.0408,-0.0411,-0.0414,-0.0414,-0.04,-0.0399,-0.0406,-0.0419,-0.042,-0.0421,-0.0438,-0.0431,-0.0439,-0.044,-0.0418,-0.0438,-0.0437,-0.0435,-0.0372,-0.0364,-0.0357,0,0,0,0,0,0,-0.0415,-0.0411,-0.0415,-0.043,-0.042,-0.0405,-0.0414,-0.0412,-0.0413,-0.0423,-0.0426,-0.0429,-0.0419,-0.0432,-0.044,-0.0409,-0.0439,-0.0437,-0.039,-0.0383,-0.0377,-0.0364,-0.0458,0,0,0,0,0,-0.0423,-0.0431,-0.042,-0.0434,-0.0433,-0.0425,-0.0425,-0.0423,-0.0418,-0.0421,-0.0421,-0.0422,-0.0407,-0.0409,-0.0405,-0.0389,-0.0404,-0.0378,-0.0372,-0.0367,-0.0357,-0.0369,-0.0363,-0.0428,-0.0428,-0.0429,0,0,-0.0436,-0.0436,-0.0442,-0.0438,-0.0436,-0.0417,-0.0428,-0.0429,-0.0404,-0.0424,-0.0403,-0.0404,-0.04,-0.0374,-0.0372,-0.0386,-0.0353,-0.0364,-0.036,-0.0353,-0.0367,-0.036,-0.0355,-0.0427,-0.0428,-0.0428,0,0,-0.0451,-0.0465,-0.0469,-0.0457,-0.0451,-0.0433,-0.0435,-0.0419,-0.0409,-0.0384,-0.0384,-0.0372,-0.0361,-0.0341,-0.0331,-0.0293,-0.0321,-0.0299,-0.0254,-0.0265,-0.0259,-0.0255,-0.0252,-0.0248,-0.0294,-0.0294,-0.0294,0,-0.0472,-0.0467,-0.0468,-0.0459,-0.0443,-0.0438,-0.0419,-0.0398,-0.0379,-0.0354,-0.0377,-0.0331,-0.0338,-0.0283,-0.0265,-0.0277,-0.0288,-0.0279,-0.0256,-0.0252,-0.0249,-0.0247,-0.0244,-0.0291,-0.0291,-0.0291,-0.0292,0,-0.0473,-0.0469,-0.0471,-0.0449,-0.0429,-0.0418,-0.038,-0.0358,-0.0345,-0.0314,-0.0271,-0.0268,-0.0241,-0.0237,-0.0236,-0.0201,-0.0217,-0.0247,-0.0273,-0.0238,-0.0239,-0.0236,-0.0286,-0.0287,-0.0288,-0.0289,0,0,-0.0521,-0.0481,-0.0484,-0.0456,-0.0421,-0.0398,-0.0351,-0.0292,-0.0249,-0.0232,-0.0173,-0.0148,-0.015,-0.014,-0.0141,-0.0143,-0.0124,-0.018,-0.0182,-0.0172,-0.0139,-0.0033,-0.0021,-0.0155,-0.0155,-0.0154,-0.0145,0,-0.0524,-0.0499,-0.047,-0.0423,-0.0397,-0.0356,-0.03,-0.0244,-0.0202,-0.0143,-0.0123,-0.0081,-0.011,-0.0097,-0.0099,-0.0115,-0.0117,-0.0123,-0.0178,-0.0179,-0.0086,-0.0013,-0.0068,-0.0053,-0.0142,-0.0142,-0.0142,0,-0.0529,-0.0505,-0.0472,-0.0385,-0.037,-0.0338,-0.0243,-0.0191,-0.0103,-0.0069,-0.0026,-0.001,0.0022,-0.0028,-0.0039,-0.0044,-0.0084,-0.0108,-0.0109,-0.0031,-0.0067,-0.0106,-0.0045,-0.0138,-0.0138,-0.0138,-0.0139,0,-0.0547,-0.0495,-0.0465,-0.0443,-0.0356,-0.0324,-0.0272,-0.0179,-0.0114,-0.0029,0.0021,0.0053,0.0073,0.003,0.0003,-0.0029,-0.0014,-0.0075,-0.0015,-0.001,-0.0074,-0.0072,-0.0096,-0.0096,-0.0096,-0.0096,-0.0096,0,-0.0545,-0.0517,-0.0477,-0.0458,-0.0395,-0.0334,-0.0254,-0.0188,-0.0091,0.0,0.0044,0.0115,0.0083,0.0101,0.0039,0.0056,0.0009,0.0023,0.0013,-0.0047,-0.0043,-0.0142,-0.0147,-0.0096,-0.0096,-0.0096,-0.0096,0,-0.0552,-0.0537,-0.0491,-0.0425,-0.0404,-0.036,-0.025,-0.0174,-0.0094,0.0022,0.0052,0.0158,0.0201,0.0186,0.0144,0.0126,0.0105,0.0108,0.0066,0.0055,0.0099,0.0097,0.0175,0.0179,0.0182,0.0185,0.0188,0,-0.0546,-0.0532,-0.0484,-0.0451,-0.0425,-0.0357,-0.029,-0.0193,-0.0107,0.0055,0.012,0.0214,0.0317,0.0349,0.0305,0.0271,0.0209,0.0217,0.016,0.0152,0.0133,0.0125,0.0118,0.0082,0.0083,0.0084,0.0085,0,-0.0511,-0.0515,-0.0474,-0.0428,-0.0377,-0.0295,-0.0205,-0.014,-0.0005,0.0095,0.0243,0.0336,0.0407,0.0409,0.0418,0.0367,0.0229,0.0247,0.0228,0.0058,0.0075,0.0053,0.0047,0.0095,0.0094,0.0094,0.0093,0.0093,-0.0483,-0.0451,-0.0413,-0.036,-0.0305,-0.0213,-0.0128,-0.0027,0.011,0.029,0.033,0.0482,0.047,0.0528,0.0445,0.0353,0.0359,0.0283,0.0273,0.0263,0.0288,0.0314,0.0383,0.0383,0.0384,0.0384,0.0385,0,-0.0409,-0.038,-0.0328,-0.0248,-0.017,-0.0169,-0.0036,0.0059,0.022,0.0356,0.0481,0.0525,0.0556,0.0513,0.0378,0.0338,0.0255,0.031,0.0166,0.0159,0.0152,0.0163,0.0229,0.0228,0.0228,0.0227,0,0,-0.0353,-0.0283,-0.0253,-0.012,-0.0079,0.0035,0.0111,0.0214,0.0327,0.0485,0.0581,0.0707,0.0645,0.0529,0.041,0.03,0.0245,0.0289,0.0418,0.0253,0.0246,0.0143,0.0156,0,0,0,0,0]}],[{"header":{"parameterUnit":"m.s-1","parameterCategory":2,"la1":30.2991,"la2":30.254,"lo1":-89.0895,"lo2":-89.0444,"dy":0.0017,"dx":0.0017,"nx":28,"ny":28,"refTime":"2023-07-27T21:00:00:Z","depth":"4","parameterNumber":2,"parameterNumberName":"U-component_of_CURRENTS"},"data":[0,0,0,0,0,0,0,0,0,0,0,0,0,0,0,0,0,0,0,0,0,0,0,0,0,0,0,0,0,0,0,0,0,0,0,0,0,0,0,0,0,0,0,0,0,0,0,0,0,0,0,0,0,0,0,0,0,0,-0.0483,-0.0484,0,-0.0514,-0.0515,-0.0515,-0.0559,-0.056,-0.0561,-0.0562,-0.0598,-0.0598,-0.0598,0,0,0,0,0,0,0,0,0,0,0,0,0,-0.0437,-0.0438,-0.0483,-0.0484,-0.0484,-0.0514,-0.0515,-0.0515,-0.0559,-0.056,-0.0561,-0.0562,-0.0598,-0.0598,-0.0598,0,0,0,0,0,0,0,0,0,0,0,0,0,-0.0462,-0.0439,-0.0483,-0.0509,-0.0512,-0.0514,-0.0515,-0.0515,-0.0559,-0.056,-0.0561,-0.0562,-0.0597,-0.0598,-0.0598,-0.0579,0,0,-0.06,-0.06,0,0,0,0,0,0,0,0,-0.0461,-0.0464,-0.0505,-0.0507,-0.051,-0.0534,-0.0512,-0.0537,-0.0559,-0.0542,-0.0562,-0.0563,-0.0576,-0.0578,-0.0582,-0.0581,-0.0582,-0.06,-0.06,-0.06,-0.06,0,0,0,0,0,0,0,-0.0459,-0.0463,-0.0496,-0.0505,-0.0509,-0.0511,-0.0516,-0.0517,-0.0553,-0.0543,-0.0546,-0.0549,-0.0577,-0.0581,-0.0583,-0.0583,-0.06,-0.06,-0.06,-0.06,-0.0584,-0.0583,0,0,0,0,0,0,-0.0455,-0.0461,-0.0495,-0.0497,-0.0487,-0.0511,-0.0517,-0.0526,-0.0553,-0.0558,-0.0548,-0.0551,-0.058,-0.0583,-0.0584,-0.052,-0.06,-0.06,-0.0601,-0.0585,-0.0584,-0.0583,0,0,0,0,0,0,-0.0454,-0.0458,-0.0494,-0.0479,-0.0484,-0.0511,-0.052,-0.0526,-0.0544,-0.0556,-0.0562,-0.0563,-0.0581,-0.0584,-0.0583,-0.0523,-0.0601,-0.0601,-0.0585,-0.0584,-0.0583,-0.0419,0,0,0,0,0,0,-0.0452,-0.0457,-0.0468,-0.0479,-0.0484,-0.0509,-0.0519,-0.0525,-0.0543,-0.0548,-0.057,-0.0574,-0.0582,-0.0582,-0.0583,-0.0525,-0.0601,-0.0586,-0.0585,-0.0584,-0.0425,-0.0412,-0.0401,0,0,0,0,0,-0.0451,-0.0463,-0.0469,-0.0473,-0.0497,-0.0509,-0.0513,-0.0535,-0.0543,-0.0555,-0.0556,-0.0574,-0.0575,-0.0581,-0.0583,-0.0524,-0.0587,-0.0585,-0.0584,-0.043,-0.0415,-0.0401,0,0,0,0,0,0,-0.0453,-0.0469,-0.0476,-0.0494,-0.0506,-0.0517,-0.0532,-0.0538,-0.0549,-0.055,-0.0562,-0.0565,-0.0538,-0.0572,-0.0579,-0.0523,-0.0585,-0.0584,-0.0468,-0.0454,-0.0442,-0.0433,-0.0602,0,0,0,0,0,-0.0456,-0.0473,-0.0481,-0.05,-0.0504,-0.0517,-0.0526,-0.0534,-0.054,-0.0547,-0.0525,-0.0529,-0.053,-0.0527,-0.0529,-0.05,-0.0585,-0.047,-0.0458,-0.0447,-0.0446,-0.056,-0.0558,-0.0578,-0.0578,-0.0578,0,0,-0.046,-0.0475,-0.0483,-0.0502,-0.0514,-0.0497,-0.0527,-0.0539,-0.0504,-0.0546,-0.0477,-0.0483,-0.0518,-0.0472,-0.0464,-0.0492,-0.0481,-0.0445,-0.0435,-0.044,-0.0558,-0.0557,-0.0555,-0.0577,-0.0577,-0.0577,0,0,-0.0474,-0.0492,-0.0505,-0.0505,-0.0517,-0.0504,-0.0506,-0.0486,-0.0466,-0.04,-0.0428,-0.0423,-0.0368,-0.0398,-0.0409,-0.035,-0.0416,-0.0324,-0.0244,-0.0353,-0.0353,-0.0353,-0.0431,-0.044,-0.0314,-0.0314,-0.0314,0,-0.0478,-0.0485,-0.0511,-0.0511,-0.0487,-0.05,-0.0471,-0.0454,-0.0417,-0.0389,-0.0358,-0.0324,-0.034,-0.0354,-0.0296,-0.0321,-0.0374,-0.0283,-0.0337,-0.0339,-0.0343,-0.0423,-0.0435,-0.0306,-0.0307,-0.0307,-0.0308,0,-0.0485,-0.0484,-0.049,-0.0475,-0.0456,-0.044,-0.04,-0.0354,-0.0289,-0.0261,-0.0215,-0.0226,-0.0211,-0.0204,-0.0201,-0.0224,-0.0249,-0.0308,-0.0367,-0.0331,-0.0417,-0.0433,-0.0294,-0.0297,-0.0299,-0.0301,0,0,-0.0489,-0.0491,-0.0487,-0.0466,-0.0422,-0.0406,-0.0328,-0.0269,-0.0243,-0.0159,-0.0127,-0.0077,-0.0076,-0.0093,-0.0121,-0.0186,-0.0221,-0.0208,-0.0218,-0.0272,-0.0421,-0.0277,-0.0281,-0.0269,-0.0271,-0.0273,-0.0461,0,-0.0473,-0.0463,-0.0444,-0.0386,-0.0362,-0.0312,-0.0242,-0.0192,-0.0135,-0.0102,-0.0118,-0.0095,-0.0043,-0.0029,-0.0072,-0.0214,-0.0256,-0.0162,-0.0461,-0.0469,-0.0336,-0.0293,-0.0281,-0.0473,-0.0477,-0.048,-0.0482,0,-0.0463,-0.0453,-0.0399,-0.0335,-0.0316,-0.0248,-0.0147,-0.0097,-0.0074,-0.0034,-0.0012,-0.0032,-0.0075,-0.0059,-0.023,-0.0157,-0.0237,-0.0346,-0.0358,-0.0294,-0.0353,-0.0529,-0.0512,-0.0509,-0.0507,-0.0505,-0.0503,0,-0.0451,-0.0406,-0.0353,-0.0329,-0.0259,-0.018,-0.0112,-0.0054,-0.004,-0.0006,-0.0022,-0.0049,-0.0107,-0.02,-0.0323,-0.0271,-0.0569,-0.0565,-0.0521,-0.0514,-0.0666,-0.0664,-0.069,-0.0689,-0.0689,-0.0688,-0.0688,0,-0.0418,-0.0391,-0.0332,-0.0307,-0.0215,-0.015,-0.0068,-0.0012,-0.0002,-0.0034,0.0012,-0.0051,-0.014,-0.0295,-0.037,-0.0482,-0.0607,-0.049,-0.0546,-0.0588,-0.0575,-0.0676,-0.0671,-0.0695,-0.0694,-0.0693,-0.0691,0,-0.0421,-0.0392,-0.0358,-0.0266,-0.0214,-0.0145,-0.0048,-0.0043,0.0003,-0.0054,-0.0047,-0.0103,-0.0202,-0.0332,-0.0552,-0.0558,-0.07,-0.072,-0.0753,-0.0813,-0.0548,-0.0533,-0.0639,-0.0635,-0.0632,-0.063,-0.0628,0,-0.0421,-0.0408,-0.0346,-0.0315,-0.0253,-0.0147,-0.0104,-0.0028,-0.0058,-0.01,-0.0176,-0.0233,-0.0257,-0.047,-0.0556,-0.0676,-0.0669,-0.0755,-0.0584,-0.0495,-0.0541,-0.0531,-0.0521,-0.0623,-0.0622,-0.0621,-0.062,0,-0.0442,-0.044,-0.042,-0.0355,-0.0289,-0.0256,-0.0189,-0.0197,-0.017,-0.0177,-0.023,-0.0234,-0.0345,-0.0401,-0.0498,-0.0596,-0.0698,-0.0721,-0.0725,-0.0565,-0.0477,-0.0523,-0.0517,-0.0609,-0.0611,-0.0612,-0.0613,0,-0.0479,-0.0469,-0.0452,-0.0377,-0.0354,-0.0343,-0.0295,-0.0285,-0.0273,-0.0282,-0.0317,-0.0341,-0.0366,-0.0368,-0.0495,-0.0513,-0.0449,-0.0462,-0.0479,-0.0491,-0.0341,-0.0201,-0.0285,0,0,0,0,0,-0.048,-0.0467,-0.0456,-0.0386,-0.04,-0.0366,-0.0366,-0.0344,-0.0316,-0.0338,-0.0293,-0.0344,-0.0334,-0.0366,-0.0341,-0.0422,-0.049,-0.0396,-0.0523,-0.0549,-0.0562,-0.0389,0,0,0,0,0,0,-0.0478,-0.0488,-0.0463,-0.0437,-0.0392,-0.0397,-0.0398,-0.0393,-0.0384,-0.0346,-0.0344,-0.0305,-0.0319,-0.032,-0.0323,-0.033,-0.0402,-0.0393,-0.0392,-0.0542,-0.0554,-0.0564,-0.039,0,0,0,0,0]},{"header":{"parameterUnit":"m.s-1","parameterCategory":2,"la1":30.2991,"la2":30.254,"lo1":-89.0895,"lo2":-89.0444,"dy":0.0017,"dx":0.0017,"nx":28,"ny":28,"refTime":"2023-07-27T21:00:00:Z","depth":"4","parameterNumber":3,"parameterNumberName":"V-component_of_CURRENTS"},"data":[0,0,0,0,0,0,0,0,0,0,0,0,0,0,0,0,0,0,0,0,0,0,0,0,0,0,0,0,0,0,0,0,0,0,0,0,0,0,0,0,0,0,0,0,0,0,0,0,0,0,0,0,0,0,0,0,0,0,0.0395,0.0395,0,0.0402,0.0403,0.0403,0.0501,0.0504,0.0506,0.0508,0.0588,0.0588,0.0587,0,0,0,0,0,0,0,0,0,0,0,0,0,0.0407,0.0407,0.0395,0.0395,0.0395,0.0402,0.0403,0.0403,0.0501,0.0504,0.0507,0.051,0.0588,0.0588,0.0587,0,0,0,0,0,0,0,0,0,0,0,0,0,0.0408,0.0407,0.0395,0.0444,0.0448,0.0402,0.0403,0.0403,0.05,0.0504,0.0508,0.0511,0.0588,0.0588,0.0587,0.0514,0,0,0.0587,0.0587,0,0,0,0,0,0,0,0,0.0408,0.0408,0.0437,0.044,0.0445,0.0454,0.0436,0.0443,0.0499,0.0481,0.0509,0.0513,0.0546,0.055,0.0543,0.0517,0.0521,0.0587,0.0587,0.0587,0.0586,0,0,0,0,0,0,0,0.0408,0.0407,0.0399,0.0436,0.0442,0.0446,0.0451,0.0437,0.0495,0.0483,0.049,0.0489,0.055,0.0543,0.0546,0.0522,0.0587,0.0587,0.0586,0.0586,0.0522,0.052,0,0,0,0,0,0,0.0404,0.0407,0.0398,0.0399,0.0434,0.0443,0.0448,0.0448,0.0494,0.0504,0.0485,0.0493,0.0542,0.0546,0.0549,0.0566,0.0587,0.0586,0.0586,0.0523,0.0522,0.052,0,0,0,0,0,0,0.0404,0.0403,0.0398,0.0403,0.0403,0.0439,0.0438,0.0446,0.0509,0.0495,0.0507,0.0548,0.0545,0.055,0.0588,0.0567,0.0586,0.0586,0.0525,0.0523,0.0521,0.0535,0,0,0,0,0,0,0.0404,0.0403,0.0413,0.0402,0.0402,0.0406,0.0435,0.0444,0.0497,0.051,0.055,0.0558,0.0548,0.0588,0.0587,0.0567,0.0586,0.0527,0.0524,0.0521,0.0537,0.0534,0.0531,0,0,0,0,0,0.0405,0.041,0.0413,0.0413,0.0411,0.0406,0.0407,0.0445,0.0498,0.0518,0.0554,0.056,0.0567,0.0588,0.0587,0.0566,0.0529,0.0525,0.0522,0.0538,0.0534,0.0531,0,0,0,0,0,0,0.0429,0.042,0.0424,0.0429,0.043,0.0424,0.045,0.0476,0.0518,0.0566,0.0561,0.0568,0.0579,0.0571,0.0593,0.0532,0.0539,0.0535,0.0551,0.0548,0.0545,0.0554,0.0586,0,0,0,0,0,0.043,0.0435,0.0423,0.0431,0.044,0.0456,0.0468,0.0504,0.0528,0.0556,0.0577,0.0582,0.0544,0.0558,0.0536,0.0524,0.0525,0.05,0.0497,0.0495,0.0498,0.0455,0.0449,0.0508,0.0508,0.0508,0,0,0.0432,0.0437,0.0435,0.0437,0.045,0.0462,0.0477,0.0527,0.0542,0.0553,0.0607,0.0587,0.0539,0.0515,0.0517,0.0524,0.0486,0.049,0.0489,0.0494,0.0451,0.0445,0.0441,0.0506,0.0506,0.0507,0,0,0.0447,0.0459,0.047,0.0477,0.0513,0.0515,0.0544,0.0575,0.06,0.0625,0.0613,0.0597,0.0583,0.0524,0.0489,0.0457,0.0469,0.0446,0.0449,0.0407,0.0402,0.0398,0.0436,0.0436,0.0448,0.0448,0.0448,0,0.0462,0.0478,0.0472,0.0495,0.0512,0.0548,0.0576,0.0579,0.0622,0.0613,0.066,0.0583,0.0569,0.0471,0.0462,0.0451,0.0463,0.0472,0.0406,0.0401,0.0397,0.0437,0.0435,0.0448,0.0448,0.0448,0.0448,0,0.0471,0.0507,0.0527,0.0556,0.056,0.0611,0.0604,0.063,0.0671,0.0655,0.0617,0.0582,0.0535,0.05,0.0481,0.0409,0.0444,0.0408,0.0424,0.0393,0.0436,0.0435,0.0449,0.0449,0.0449,0.0449,0,0,0.0467,0.0525,0.0541,0.0572,0.062,0.0624,0.0633,0.0619,0.0613,0.0629,0.0585,0.0517,0.0516,0.0473,0.043,0.0389,0.0387,0.0401,0.0399,0.0459,0.0364,0.0306,0.0299,0.0347,0.0346,0.0345,0.0425,0,0.0501,0.0562,0.0571,0.063,0.0664,0.0675,0.0659,0.0645,0.0633,0.0595,0.0528,0.0493,0.0494,0.0485,0.0437,0.0368,0.0377,0.0373,0.0369,0.037,0.0335,0.0291,0.034,0.0424,0.0424,0.0424,0.0424,0,0.0513,0.0561,0.0641,0.0672,0.0684,0.0727,0.071,0.0702,0.0621,0.0604,0.0549,0.0501,0.0427,0.0447,0.0372,0.0376,0.0399,0.0368,0.0369,0.0304,0.0305,0.0447,0.0421,0.0422,0.0422,0.0422,0.0422,0,0.0514,0.0598,0.0678,0.0702,0.0742,0.0777,0.0794,0.0734,0.0703,0.0639,0.0596,0.0506,0.0467,0.0439,0.0401,0.0399,0.0328,0.0313,0.0301,0.0301,0.0332,0.0334,0.0311,0.0311,0.0311,0.0311,0.031,0,0.0524,0.0581,0.0718,0.076,0.0829,0.0838,0.0864,0.0838,0.0781,0.0693,0.0642,0.051,0.0463,0.0394,0.0395,0.0335,0.0345,0.03,0.0292,0.0342,0.0345,0.0335,0.0336,0.0314,0.0313,0.0312,0.0312,0,0.0481,0.0584,0.069,0.0807,0.0848,0.0908,0.0943,0.0912,0.0881,0.0761,0.0748,0.0545,0.0416,0.0397,0.0322,0.0321,0.0281,0.029,0.04,0.0399,0.0304,0.0306,0.0266,0.0264,0.0262,0.0261,0.026,0,0.046,0.0533,0.0732,0.0812,0.0897,0.0982,0.0998,0.0989,0.0921,0.0717,0.0616,0.0475,0.0343,0.0226,0.0179,0.0225,0.0229,0.0293,0.0246,0.029,0.0288,0.0292,0.0295,0.0257,0.0257,0.0256,0.0256,0,0.042,0.0543,0.0614,0.0801,0.091,0.0946,0.0968,0.0893,0.0796,0.079,0.0513,0.0397,0.0225,0.0122,0.0202,0.0201,0.0267,0.0275,0.0278,0.0235,0.0279,0.0279,0.0285,0.025,0.0251,0.0251,0.0252,0,0.0405,0.0441,0.0594,0.0739,0.0864,0.0851,0.0861,0.0771,0.0715,0.0525,0.0402,0.0231,0.0163,0.0101,0.0106,0.0157,0.0147,0.0208,0.0215,0.0222,0.0156,0.0203,0.0136,0,0,0,0,0,0.0378,0.0389,0.0499,0.0626,0.0752,0.0832,0.0789,0.0764,0.0656,0.0498,0.0475,0.0316,0.0201,0.0075,0.0116,0.0038,0.0142,0.0084,0.0217,0.0218,0.0224,0.0144,0,0,0,0,0,0,0.0338,0.0418,0.0446,0.0533,0.0606,0.0682,0.0658,0.0587,0.0489,0.0406,0.0339,0.0375,0.026,0.0229,0.0138,0.013,0.0225,0.006,0.0061,0.0214,0.022,0.0225,0.0146,0,0,0,0,0]}]]